Year,Month,Day,Hour,Minute,Value (Times are PST for temperature in C)
2015,04,04,00,00,4.40
2015,04,04,00,01,4.40
2015,04,04,00,02,4.40
2015,04,04,00,03,4.30
2015,04,04,00,04,4.30
2015,04,04,00,05,4.30
2015,04,04,00,06,4.30
2015,04,04,00,07,4.30
2015,04,04,00,08,4.30
2015,04,04,00,09,4.30
2015,04,04,00,10,4.40
2015,04,04,00,11,4.40
2015,04,04,00,12,4.40
2015,04,04,00,13,4.40
2015,04,04,00,14,4.40
2015,04,04,00,15,4.40
2015,04,04,00,16,4.40
2015,04,04,00,17,4.50
2015,04,04,00,18,4.50
2015,04,04,00,19,4.50
2015,04,04,00,20,4.40
2015,04,04,00,21,4.40
2015,04,04,00,22,4.40
2015,04,04,00,23,4.40
2015,04,04,00,24,4.40
2015,04,04,00,25,4.30
2015,04,04,00,26,4.30
2015,04,04,00,27,4.30
2015,04,04,00,28,4.30
2015,04,04,00,29,4.30
2015,04,04,00,30,4.30
2015,04,04,00,31,4.30
2015,04,04,00,32,4.20
2015,04,04,00,33,4.20
2015,04,04,00,34,4.20
2015,04,04,00,35,4.20
2015,04,04,00,36,4.20
2015,04,04,00,37,4.20
2015,04,04,00,38,4.20
2015,04,04,00,39,4.20
2015,04,04,00,40,4.20
2015,04,04,00,41,4.20
2015,04,04,00,42,4.20
2015,04,04,00,43,4.20
2015,04,04,00,44,4.30
2015,04,04,00,45,4.30
2015,04,04,00,46,4.30
2015,04,04,00,47,4.30
2015,04,04,00,48,4.40
2015,04,04,00,49,4.40
2015,04,04,00,50,4.30
2015,04,04,00,51,4.40
2015,04,04,00,52,4.30
2015,04,04,00,53,4.30
2015,04,04,00,54,4.30
2015,04,04,00,55,4.30
2015,04,04,00,56,4.20
2015,04,04,00,57,4.20
2015,04,04,00,58,4.10
2015,04,04,00,59,4.10
2015,04,04,01,00,4.10
2015,04,04,01,01,4.00
2015,04,04,01,02,4.00
2015,04,04,01,03,3.90
2015,04,04,01,04,3.90
2015,04,04,01,05,3.90
2015,04,04,01,06,3.90
2015,04,04,01,07,3.80
2015,04,04,01,08,3.80
2015,04,04,01,09,3.80
2015,04,04,01,10,3.80
2015,04,04,01,11,3.80
2015,04,04,01,12,3.80
2015,04,04,01,13,3.80
2015,04,04,01,14,3.80
2015,04,04,01,15,3.80
2015,04,04,01,16,3.80
2015,04,04,01,17,3.80
2015,04,04,01,18,3.90
2015,04,04,01,19,3.80
2015,04,04,01,20,3.80
2015,04,04,01,21,3.80
2015,04,04,01,22,3.80
2015,04,04,01,23,3.80
2015,04,04,01,24,3.80
2015,04,04,01,25,3.80
2015,04,04,01,26,3.70
2015,04,04,01,27,3.70
2015,04,04,01,28,3.70
2015,04,04,01,29,3.70
2015,04,04,01,30,3.70
2015,04,04,01,31,3.70
2015,04,04,01,32,3.70
2015,04,04,01,33,3.70
2015,04,04,01,34,3.70
2015,04,04,01,35,3.70
2015,04,04,01,36,3.70
2015,04,04,01,37,3.80
2015,04,04,01,38,3.80
2015,04,04,01,39,3.80
2015,04,04,01,40,3.80
2015,04,04,01,41,3.90
2015,04,04,01,42,3.90
2015,04,04,01,43,3.90
2015,04,04,01,44,3.90
2015,04,04,01,45,3.90
2015,04,04,01,46,3.90
2015,04,04,01,47,3.90
2015,04,04,01,48,3.90
2015,04,04,01,49,3.90
2015,04,04,01,50,3.80
2015,04,04,01,51,3.80
2015,04,04,01,52,3.80
2015,04,04,01,53,3.80
2015,04,04,01,54,3.70
2015,04,04,01,55,3.70
2015,04,04,01,56,3.70
2015,04,04,01,57,3.70
2015,04,04,01,58,3.70
2015,04,04,01,59,3.70
2015,04,04,02,00,3.70
2015,04,04,02,01,3.70
2015,04,04,02,02,3.70
2015,04,04,02,03,3.70
2015,04,04,02,04,3.70
2015,04,04,02,05,3.70
2015,04,04,02,06,3.70
2015,04,04,02,07,3.70
2015,04,04,02,08,3.70
2015,04,04,02,09,3.60
2015,04,04,02,10,3.60
2015,04,04,02,11,3.60
2015,04,04,02,12,3.60
2015,04,04,02,13,3.60
2015,04,04,02,14,3.60
2015,04,04,02,15,3.60
2015,04,04,02,16,3.60
2015,04,04,02,17,3.60
2015,04,04,02,18,3.60
2015,04,04,02,19,3.60
2015,04,04,02,20,3.60
2015,04,04,02,21,3.60
2015,04,04,02,22,3.60
2015,04,04,02,23,3.60
2015,04,04,02,24,3.60
2015,04,04,02,25,3.60
2015,04,04,02,26,3.60
2015,04,04,02,27,3.60
2015,04,04,02,28,3.60
2015,04,04,02,29,3.60
2015,04,04,02,30,3.60
2015,04,04,02,31,3.60
2015,04,04,02,32,3.60
2015,04,04,02,33,3.60
2015,04,04,02,34,3.60
2015,04,04,02,35,3.70
2015,04,04,02,36,3.70
2015,04,04,02,37,3.70
2015,04,04,02,38,3.70
2015,04,04,02,39,3.70
2015,04,04,02,40,3.70
2015,04,04,02,41,3.70
2015,04,04,02,42,3.70
2015,04,04,02,43,3.60
2015,04,04,02,44,3.60
2015,04,04,02,45,3.60
2015,04,04,02,46,3.60
2015,04,04,02,47,3.70
2015,04,04,02,48,3.60
2015,04,04,02,49,3.60
2015,04,04,02,50,3.60
2015,04,04,02,51,3.60
2015,04,04,02,52,3.60
2015,04,04,02,53,3.60
2015,04,04,02,54,3.60
2015,04,04,02,55,3.60
2015,04,04,02,56,3.60
2015,04,04,02,57,3.50
2015,04,04,02,58,3.50
2015,04,04,02,59,3.50
2015,04,04,03,00,3.50
2015,04,04,03,01,3.40
2015,04,04,03,02,3.40
2015,04,04,03,03,3.40
2015,04,04,03,04,3.30
2015,04,04,03,05,3.30
2015,04,04,03,06,3.30
2015,04,04,03,07,3.30
2015,04,04,03,08,3.30
2015,04,04,03,09,3.30
2015,04,04,03,10,3.30
2015,04,04,03,11,3.30
2015,04,04,03,12,3.30
2015,04,04,03,13,3.20
2015,04,04,03,14,3.20
2015,04,04,03,15,3.10
2015,04,04,03,16,3.10
2015,04,04,03,17,3.10
2015,04,04,03,18,3.00
2015,04,04,03,19,3.00
2015,04,04,03,20,2.90
2015,04,04,03,21,2.90
2015,04,04,03,22,2.90
2015,04,04,03,23,2.90
2015,04,04,03,24,2.90
2015,04,04,03,25,2.80
2015,04,04,03,26,2.80
2015,04,04,03,27,2.80
2015,04,04,03,28,2.80
2015,04,04,03,29,2.80
2015,04,04,03,30,2.80
2015,04,04,03,31,2.80
2015,04,04,03,32,2.90
2015,04,04,03,33,2.90
2015,04,04,03,34,2.90
2015,04,04,03,35,2.90
2015,04,04,03,36,2.90
2015,04,04,03,37,2.80
2015,04,04,03,38,2.80
2015,04,04,03,39,2.80
2015,04,04,03,40,2.80
2015,04,04,03,41,2.70
2015,04,04,03,42,2.70
2015,04,04,03,43,2.70
2015,04,04,03,44,2.70
2015,04,04,03,45,2.70
2015,04,04,03,46,2.70
2015,04,04,03,47,2.60
2015,04,04,03,48,2.60
2015,04,04,03,49,2.60
2015,04,04,03,50,2.60
2015,04,04,03,51,2.60
2015,04,04,03,52,2.60
2015,04,04,03,53,2.60
2015,04,04,03,54,2.60
2015,04,04,03,55,2.50
2015,04,04,03,56,2.50
2015,04,04,03,57,2.50
2015,04,04,03,58,2.40
2015,04,04,03,59,2.50
2015,04,04,04,00,2.50
2015,04,04,04,01,2.50
2015,04,04,04,02,2.40
2015,04,04,04,03,2.40
2015,04,04,04,04,2.40
2015,04,04,04,05,2.40
2015,04,04,04,06,2.40
2015,04,04,04,07,2.40
2015,04,04,04,08,2.40
2015,04,04,04,09,2.50
2015,04,04,04,10,2.50
2015,04,04,04,11,2.50
2015,04,04,04,12,2.50
2015,04,04,04,13,2.50
2015,04,04,04,14,2.50
2015,04,04,04,15,2.50
2015,04,04,04,16,2.50
2015,04,04,04,17,2.50
2015,04,04,04,18,2.50
2015,04,04,04,19,2.40
2015,04,04,04,20,2.40
2015,04,04,04,21,2.40
2015,04,04,04,22,2.40
2015,04,04,04,23,2.40
2015,04,04,04,24,2.30
2015,04,04,04,25,2.30
2015,04,04,04,26,2.30
2015,04,04,04,27,2.30
2015,04,04,04,28,2.30
2015,04,04,04,29,2.30
2015,04,04,04,30,2.30
2015,04,04,04,31,2.20
2015,04,04,04,32,2.20
2015,04,04,04,33,2.20
2015,04,04,04,34,2.20
2015,04,04,04,35,2.20
2015,04,04,04,36,2.20
2015,04,04,04,37,2.20
2015,04,04,04,38,2.20
2015,04,04,04,39,2.20
2015,04,04,04,40,2.20
2015,04,04,04,41,2.20
2015,04,04,04,42,2.30
2015,04,04,04,43,2.30
2015,04,04,04,44,2.30
2015,04,04,04,45,2.40
2015,04,04,04,46,2.40
2015,04,04,04,47,2.40
2015,04,04,04,48,2.40
2015,04,04,04,49,2.40
2015,04,04,04,50,2.40
2015,04,04,04,51,2.40
2015,04,04,04,52,2.40
2015,04,04,04,53,2.40
2015,04,04,04,54,2.40
2015,04,04,04,55,2.40
2015,04,04,04,56,2.40
2015,04,04,04,57,2.40
2015,04,04,04,58,2.40
2015,04,04,04,59,2.40
2015,04,04,05,00,2.40
2015,04,04,05,01,2.40
2015,04,04,05,02,2.50
2015,04,04,05,03,2.50
2015,04,04,05,04,2.50
2015,04,04,05,05,2.50
2015,04,04,05,06,2.50
2015,04,04,05,07,2.60
2015,04,04,05,08,2.60
2015,04,04,05,09,2.60
2015,04,04,05,10,2.60
2015,04,04,05,11,2.60
2015,04,04,05,12,2.70
2015,04,04,05,13,2.60
2015,04,04,05,14,2.60
2015,04,04,05,15,2.60
2015,04,04,05,16,2.60
2015,04,04,05,17,2.50
2015,04,04,05,18,2.50
2015,04,04,05,19,2.40
2015,04,04,05,20,2.40
2015,04,04,05,21,2.40
2015,04,04,05,22,2.40
2015,04,04,05,23,2.40
2015,04,04,05,24,2.30
2015,04,04,05,25,2.30
2015,04,04,05,26,2.30
2015,04,04,05,27,2.30
2015,04,04,05,28,2.30
2015,04,04,05,29,2.30
2015,04,04,05,30,2.30
2015,04,04,05,31,2.30
2015,04,04,05,32,2.30
2015,04,04,05,33,2.30
2015,04,04,05,34,2.30
2015,04,04,05,35,2.30
2015,04,04,05,36,2.30
2015,04,04,05,37,2.40
2015,04,04,05,38,2.40
2015,04,04,05,39,2.40
2015,04,04,05,40,2.40
2015,04,04,05,41,2.40
2015,04,04,05,42,2.40
2015,04,04,05,43,2.40
2015,04,04,05,44,2.40
2015,04,04,05,45,2.40
2015,04,04,05,46,2.40
2015,04,04,05,47,2.40
2015,04,04,05,48,2.40
2015,04,04,05,49,2.40
2015,04,04,05,50,2.40
2015,04,04,05,51,2.40
2015,04,04,05,52,2.40
2015,04,04,05,53,2.40
2015,04,04,05,54,2.40
2015,04,04,05,55,2.50
2015,04,04,05,56,2.50
2015,04,04,05,57,2.50
2015,04,04,05,58,2.50
2015,04,04,05,59,2.50
2015,04,04,06,00,2.40
2015,04,04,06,01,2.40
2015,04,04,06,02,2.40
2015,04,04,06,03,2.40
2015,04,04,06,04,2.40
2015,04,04,06,05,2.40
2015,04,04,06,06,2.40
2015,04,04,06,07,2.40
2015,04,04,06,08,2.40
2015,04,04,06,09,2.40
2015,04,04,06,10,2.40
2015,04,04,06,11,2.30
2015,04,04,06,12,2.30
2015,04,04,06,13,2.30
2015,04,04,06,14,2.30
2015,04,04,06,15,2.30
2015,04,04,06,16,2.30
2015,04,04,06,17,2.30
2015,04,04,06,18,2.30
2015,04,04,06,19,2.30
2015,04,04,06,20,2.30
2015,04,04,06,21,2.30
2015,04,04,06,22,2.30
2015,04,04,06,23,2.30
2015,04,04,06,24,2.30
2015,04,04,06,25,2.30
2015,04,04,06,26,2.30
2015,04,04,06,27,2.40
2015,04,04,06,28,2.40
2015,04,04,06,29,2.40
2015,04,04,06,30,2.40
2015,04,04,06,31,2.40
2015,04,04,06,32,2.40
2015,04,04,06,33,2.50
2015,04,04,06,34,2.50
2015,04,04,06,35,2.40
2015,04,04,06,36,2.50
2015,04,04,06,37,2.50
2015,04,04,06,38,2.50
2015,04,04,06,39,2.50
2015,04,04,06,40,2.50
2015,04,04,06,41,2.50
2015,04,04,06,42,2.50
2015,04,04,06,43,2.60
2015,04,04,06,44,2.60
2015,04,04,06,45,2.60
2015,04,04,06,46,2.60
2015,04,04,06,47,2.60
2015,04,04,06,48,2.60
2015,04,04,06,49,2.70
2015,04,04,06,50,2.70
2015,04,04,06,51,2.70
2015,04,04,06,52,2.70
2015,04,04,06,53,2.80
2015,04,04,06,54,2.80
2015,04,04,06,55,2.80
2015,04,04,06,56,2.80
2015,04,04,06,57,2.80
2015,04,04,06,58,2.80
2015,04,04,06,59,2.80
2015,04,04,07,00,2.80
2015,04,04,07,01,2.80
2015,04,04,07,02,2.80
2015,04,04,07,03,2.80
2015,04,04,07,04,2.80
2015,04,04,07,05,2.80
2015,04,04,07,06,2.80
2015,04,04,07,07,2.80
2015,04,04,07,08,2.80
2015,04,04,07,09,2.80
2015,04,04,07,10,2.80
2015,04,04,07,11,2.80
2015,04,04,07,12,2.80
2015,04,04,07,13,2.80
2015,04,04,07,14,2.90
2015,04,04,07,15,2.90
2015,04,04,07,16,2.90
2015,04,04,07,17,2.90
2015,04,04,07,18,2.90
2015,04,04,07,19,2.90
2015,04,04,07,20,2.90
2015,04,04,07,21,3.00
2015,04,04,07,22,3.00
2015,04,04,07,23,3.00
2015,04,04,07,24,3.10
2015,04,04,07,25,3.10
2015,04,04,07,26,3.10
2015,04,04,07,27,3.10
2015,04,04,07,28,3.10
2015,04,04,07,29,3.10
2015,04,04,07,30,3.10
2015,04,04,07,31,3.20
2015,04,04,07,32,3.20
2015,04,04,07,33,3.20
2015,04,04,07,34,3.20
2015,04,04,07,35,3.20
2015,04,04,07,36,3.30
2015,04,04,07,37,3.30
2015,04,04,07,38,3.30
2015,04,04,07,39,3.40
2015,04,04,07,40,3.40
2015,04,04,07,41,3.40
2015,04,04,07,42,3.40
2015,04,04,07,43,3.40
2015,04,04,07,44,3.40
2015,04,04,07,45,3.40
2015,04,04,07,46,3.40
2015,04,04,07,47,3.40
2015,04,04,07,48,3.50
2015,04,04,07,49,3.50
2015,04,04,07,50,3.50
2015,04,04,07,51,3.50
2015,04,04,07,52,3.50
2015,04,04,07,53,3.50
2015,04,04,07,54,3.50
2015,04,04,07,55,3.50
2015,04,04,07,56,3.50
2015,04,04,07,57,3.50
2015,04,04,07,58,3.50
2015,04,04,07,59,3.50
2015,04,04,08,00,3.50
2015,04,04,08,01,3.50
2015,04,04,08,02,3.50
2015,04,04,08,03,3.50
2015,04,04,08,04,3.50
2015,04,04,08,05,3.50
2015,04,04,08,06,3.50
2015,04,04,08,07,3.50
2015,04,04,08,08,3.50
2015,04,04,08,09,3.50
2015,04,04,08,10,3.60
2015,04,04,08,11,3.60
2015,04,04,08,12,3.60
2015,04,04,08,13,3.60
2015,04,04,08,14,3.60
2015,04,04,08,15,3.60
2015,04,04,08,16,3.60
2015,04,04,08,17,3.60
2015,04,04,08,18,3.70
2015,04,04,08,19,3.70
2015,04,04,08,20,3.70
2015,04,04,08,21,3.80
2015,04,04,08,22,3.80
2015,04,04,08,23,3.80
2015,04,04,08,24,3.80
2015,04,04,08,25,3.80
2015,04,04,08,26,3.90
2015,04,04,08,27,4.00
2015,04,04,08,28,4.10
2015,04,04,08,29,4.20
2015,04,04,08,30,4.30
2015,04,04,08,31,4.30
2015,04,04,08,32,4.40
2015,04,04,08,33,4.40
2015,04,04,08,34,4.40
2015,04,04,08,35,4.40
2015,04,04,08,36,4.40
2015,04,04,08,37,4.40
2015,04,04,08,38,4.40
2015,04,04,08,39,4.40
2015,04,04,08,40,4.40
2015,04,04,08,41,4.40
2015,04,04,08,42,4.40
2015,04,04,08,43,4.50
2015,04,04,08,44,4.50
2015,04,04,08,45,4.60
2015,04,04,08,46,4.60
2015,04,04,08,47,4.60
2015,04,04,08,48,4.60
2015,04,04,08,49,4.60
2015,04,04,08,50,4.70
2015,04,04,08,51,4.70
2015,04,04,08,52,4.70
2015,04,04,08,53,4.70
2015,04,04,08,54,4.80
2015,04,04,08,55,4.80
2015,04,04,08,56,4.80
2015,04,04,08,57,4.80
2015,04,04,08,58,4.80
2015,04,04,08,59,4.90
2015,04,04,09,00,4.90
2015,04,04,09,01,4.90
2015,04,04,09,02,4.90
2015,04,04,09,03,4.90
2015,04,04,09,04,5.00
2015,04,04,09,05,5.00
2015,04,04,09,06,5.00
2015,04,04,09,07,5.10
2015,04,04,09,08,5.10
2015,04,04,09,09,5.10
2015,04,04,09,10,5.10
2015,04,04,09,11,5.10
2015,04,04,09,12,5.10
2015,04,04,09,13,5.20
2015,04,04,09,14,5.20
2015,04,04,09,15,5.20
2015,04,04,09,16,5.30
2015,04,04,09,17,5.30
2015,04,04,09,18,5.30
2015,04,04,09,19,5.30
2015,04,04,09,20,5.30
2015,04,04,09,21,5.30
2015,04,04,09,22,5.40
2015,04,04,09,23,5.40
2015,04,04,09,24,5.50
2015,04,04,09,25,5.50
2015,04,04,09,26,5.50
2015,04,04,09,27,5.60
2015,04,04,09,28,5.60
2015,04,04,09,29,5.70
2015,04,04,09,30,5.70
2015,04,04,09,31,5.80
2015,04,04,09,32,5.90
2015,04,04,09,33,5.90
2015,04,04,09,34,6.00
2015,04,04,09,35,6.10
2015,04,04,09,36,6.10
2015,04,04,09,37,6.20
2015,04,04,09,38,6.20
2015,04,04,09,39,6.30
2015,04,04,09,40,6.30
2015,04,04,09,41,6.40
2015,04,04,09,42,6.50
2015,04,04,09,43,6.60
2015,04,04,09,44,6.70
2015,04,04,09,45,6.70
2015,04,04,09,46,6.80
2015,04,04,09,47,6.80
2015,04,04,09,48,6.80
2015,04,04,09,49,6.80
2015,04,04,09,50,6.90
2015,04,04,09,51,6.90
2015,04,04,09,52,7.00
2015,04,04,09,53,7.10
2015,04,04,09,54,7.20
2015,04,04,09,55,7.20
2015,04,04,09,56,7.30
2015,04,04,09,57,7.40
2015,04,04,09,58,7.50
2015,04,04,09,59,7.50
2015,04,04,10,00,7.60
2015,04,04,10,01,7.70
2015,04,04,10,02,7.70
2015,04,04,10,03,7.80
2015,04,04,10,04,7.90
2015,04,04,10,05,7.90
2015,04,04,10,06,8.00
2015,04,04,10,07,8.10
2015,04,04,10,08,8.20
2015,04,04,10,09,8.30
2015,04,04,10,10,8.30
2015,04,04,10,11,8.40
2015,04,04,10,12,8.40
2015,04,04,10,13,8.40
2015,04,04,10,14,8.40
2015,04,04,10,15,8.40
2015,04,04,10,16,8.40
2015,04,04,10,17,8.40
2015,04,04,10,18,8.40
2015,04,04,10,19,8.40
2015,04,04,10,20,8.40
2015,04,04,10,21,8.40
2015,04,04,10,22,8.50
2015,04,04,10,23,8.50
2015,04,04,10,24,8.50
2015,04,04,10,25,8.40
2015,04,04,10,26,8.50
2015,04,04,10,27,8.50
2015,04,04,10,28,8.50
2015,04,04,10,29,8.60
2015,04,04,10,30,8.60
2015,04,04,10,31,8.50
2015,04,04,10,32,8.50
2015,04,04,10,33,8.50
2015,04,04,10,34,8.40
2015,04,04,10,35,8.40
2015,04,04,10,36,8.40
2015,04,04,10,37,8.40
2015,04,04,10,38,8.40
2015,04,04,10,39,8.40
2015,04,04,10,40,8.50
2015,04,04,10,41,8.50
2015,04,04,10,42,8.60
2015,04,04,10,43,8.70
2015,04,04,10,44,8.80
2015,04,04,10,45,8.90
2015,04,04,10,46,8.90
2015,04,04,10,47,8.90
2015,04,04,10,48,8.90
2015,04,04,10,49,8.90
2015,04,04,10,50,8.80
2015,04,04,10,51,8.80
2015,04,04,10,52,8.80
2015,04,04,10,53,8.80
2015,04,04,10,54,8.90
2015,04,04,10,55,9.00
2015,04,04,10,56,9.00
2015,04,04,10,57,9.10
2015,04,04,10,58,9.20
2015,04,04,10,59,9.30
2015,04,04,11,00,9.40
2015,04,04,11,01,9.50
2015,04,04,11,02,9.60
2015,04,04,11,03,9.60
2015,04,04,11,04,9.70
2015,04,04,11,05,9.70
2015,04,04,11,06,9.70
2015,04,04,11,07,9.80
2015,04,04,11,08,9.80
2015,04,04,11,09,9.80
2015,04,04,11,10,9.70
2015,04,04,11,11,9.60
2015,04,04,11,12,9.60
2015,04,04,11,13,9.60
2015,04,04,11,14,9.60
2015,04,04,11,15,9.60
2015,04,04,11,16,9.60
2015,04,04,11,17,9.60
2015,04,04,11,18,9.60
2015,04,04,11,19,9.70
2015,04,04,11,20,9.80
2015,04,04,11,21,9.90
2015,04,04,11,22,10.00
2015,04,04,11,23,10.10
2015,04,04,11,24,10.20
2015,04,04,11,25,10.20
2015,04,04,11,26,10.30
2015,04,04,11,27,10.30
2015,04,04,11,28,10.30
2015,04,04,11,29,10.30
2015,04,04,11,30,10.30
2015,04,04,11,31,10.30
2015,04,04,11,32,10.40
2015,04,04,11,33,10.60
2015,04,04,11,34,10.70
2015,04,04,11,35,10.80
2015,04,04,11,36,10.90
2015,04,04,11,37,10.90
2015,04,04,11,38,11.00
2015,04,04,11,39,10.90
2015,04,04,11,40,10.80
2015,04,04,11,41,10.80
2015,04,04,11,42,10.70
2015,04,04,11,43,10.70
2015,04,04,11,44,10.90
2015,04,04,11,45,11.00
2015,04,04,11,46,11.10
2015,04,04,11,47,11.10
2015,04,04,11,48,11.10
2015,04,04,11,49,11.00
2015,04,04,11,50,10.90
2015,04,04,11,51,10.90
2015,04,04,11,52,10.90
2015,04,04,11,53,10.90
2015,04,04,11,54,10.90
2015,04,04,11,55,10.90
2015,04,04,11,56,10.80
2015,04,04,11,57,10.80
2015,04,04,11,58,10.80
2015,04,04,11,59,10.70
2015,04,04,12,00,10.60
2015,04,04,12,01,10.60
2015,04,04,12,02,10.50
2015,04,04,12,03,10.30
2015,04,04,12,04,10.20
2015,04,04,12,05,10.00
2015,04,04,12,06,9.70
2015,04,04,12,07,9.60
2015,04,04,12,08,9.50
2015,04,04,12,09,9.50
2015,04,04,12,10,9.50
2015,04,04,12,11,9.60
2015,04,04,12,12,9.60
2015,04,04,12,13,9.60
2015,04,04,12,14,9.70
2015,04,04,12,15,9.70
2015,04,04,12,16,9.70
2015,04,04,12,17,9.70
2015,04,04,12,18,9.60
2015,04,04,12,19,9.50
2015,04,04,12,20,9.50
2015,04,04,12,21,9.50
2015,04,04,12,22,9.50
2015,04,04,12,23,9.60
2015,04,04,12,24,9.60
2015,04,04,12,25,9.60
2015,04,04,12,26,9.70
2015,04,04,12,27,9.70
2015,04,04,12,28,9.70
2015,04,04,12,29,9.70
2015,04,04,12,30,9.60
2015,04,04,12,31,9.60
2015,04,04,12,32,9.60
2015,04,04,12,33,9.60
2015,04,04,12,34,9.60
2015,04,04,12,35,9.60
2015,04,04,12,36,9.60
2015,04,04,12,37,9.60
2015,04,04,12,38,9.70
2015,04,04,12,39,9.80
2015,04,04,12,40,9.80
2015,04,04,12,41,9.80
2015,04,04,12,42,9.80
2015,04,04,12,43,9.90
2015,04,04,12,44,9.90
2015,04,04,12,45,9.80
2015,04,04,12,46,9.90
2015,04,04,12,47,9.90
2015,04,04,12,48,9.80
2015,04,04,12,49,9.80
2015,04,04,12,50,9.80
2015,04,04,12,51,9.80
2015,04,04,12,52,9.90
2015,04,04,12,53,10.00
2015,04,04,12,54,10.00
2015,04,04,12,55,10.10
2015,04,04,12,56,10.20
2015,04,04,12,57,10.30
2015,04,04,12,58,10.40
2015,04,04,12,59,10.40
2015,04,04,13,00,10.30
2015,04,04,13,01,10.20
2015,04,04,13,02,10.10
2015,04,04,13,03,10.10
2015,04,04,13,04,10.10
2015,04,04,13,05,10.10
2015,04,04,13,06,10.10
2015,04,04,13,07,10.20
2015,04,04,13,08,10.10
2015,04,04,13,09,10.10
2015,04,04,13,10,10.00
2015,04,04,13,11,9.90
2015,04,04,13,12,9.80
2015,04,04,13,13,9.80
2015,04,04,13,14,9.80
2015,04,04,13,15,9.80
2015,04,04,13,16,9.80
2015,04,04,13,17,9.90
2015,04,04,13,18,10.10
2015,04,04,13,19,10.20
2015,04,04,13,20,10.20
2015,04,04,13,21,10.30
2015,04,04,13,22,10.30
2015,04,04,13,23,10.30
2015,04,04,13,24,10.20
2015,04,04,13,25,10.20
2015,04,04,13,26,10.20
2015,04,04,13,27,10.30
2015,04,04,13,28,10.30
2015,04,04,13,29,10.30
2015,04,04,13,30,10.30
2015,04,04,13,31,10.40
2015,04,04,13,32,10.50
2015,04,04,13,33,10.60
2015,04,04,13,34,10.70
2015,04,04,13,35,10.80
2015,04,04,13,36,10.90
2015,04,04,13,37,11.00
2015,04,04,13,38,11.10
2015,04,04,13,39,11.10
2015,04,04,13,40,11.10
2015,04,04,13,41,11.10
2015,04,04,13,42,11.00
2015,04,04,13,43,11.10
2015,04,04,13,44,11.10
2015,04,04,13,45,11.20
2015,04,04,13,46,11.30
2015,04,04,13,47,11.30
2015,04,04,13,48,11.30
2015,04,04,13,49,11.40
2015,04,04,13,50,11.40
2015,04,04,13,51,11.40
2015,04,04,13,52,11.40
2015,04,04,13,53,11.50
2015,04,04,13,54,11.50
2015,04,04,13,55,11.50
2015,04,04,13,56,11.50
2015,04,04,13,57,11.60
2015,04,04,13,58,11.60
2015,04,04,13,59,11.50
2015,04,04,14,00,11.40
2015,04,04,14,01,11.40
2015,04,04,14,02,11.30
2015,04,04,14,03,11.30
2015,04,04,14,04,11.40
2015,04,04,14,05,11.40
2015,04,04,14,06,11.40
2015,04,04,14,07,11.40
2015,04,04,14,08,11.40
2015,04,04,14,09,11.40
2015,04,04,14,10,11.40
2015,04,04,14,11,11.20
2015,04,04,14,12,11.10
2015,04,04,14,13,10.90
2015,04,04,14,14,10.70
2015,04,04,14,15,10.60
2015,04,04,14,16,10.60
2015,04,04,14,17,10.60
2015,04,04,14,18,10.60
2015,04,04,14,19,10.60
2015,04,04,14,20,10.70
2015,04,04,14,21,10.70
2015,04,04,14,22,10.80
2015,04,04,14,23,10.80
2015,04,04,14,24,10.80
2015,04,04,14,25,10.80
2015,04,04,14,26,10.80
2015,04,04,14,27,10.80
2015,04,04,14,28,10.80
2015,04,04,14,29,10.80
2015,04,04,14,30,10.80
2015,04,04,14,31,10.80
2015,04,04,14,32,10.70
2015,04,04,14,33,10.70
2015,04,04,14,34,10.60
2015,04,04,14,35,10.60
2015,04,04,14,36,10.50
2015,04,04,14,37,10.60
2015,04,04,14,38,10.60
2015,04,04,14,39,10.60
2015,04,04,14,40,10.70
2015,04,04,14,41,10.70
2015,04,04,14,42,10.70
2015,04,04,14,43,10.70
2015,04,04,14,44,10.70
2015,04,04,14,45,10.70
2015,04,04,14,46,10.70
2015,04,04,14,47,10.70
2015,04,04,14,48,10.70
2015,04,04,14,49,10.60
2015,04,04,14,50,10.60
2015,04,04,14,51,10.50
2015,04,04,14,52,10.40
2015,04,04,14,53,10.40
2015,04,04,14,54,10.30
2015,04,04,14,55,10.20
2015,04,04,14,56,10.10
2015,04,04,14,57,10.00
2015,04,04,14,58,9.90
2015,04,04,14,59,9.80
2015,04,04,15,00,9.70
2015,04,04,15,01,9.60
2015,04,04,15,02,9.50
2015,04,04,15,03,9.40
2015,04,04,15,04,9.30
2015,04,04,15,05,9.30
2015,04,04,15,06,9.20
2015,04,04,15,07,9.20
2015,04,04,15,08,9.20
2015,04,04,15,09,9.20
2015,04,04,15,10,9.10
2015,04,04,15,11,9.10
2015,04,04,15,12,9.10
2015,04,04,15,13,9.10
2015,04,04,15,14,9.10
2015,04,04,15,15,9.10
2015,04,04,15,16,9.10
2015,04,04,15,17,9.10
2015,04,04,15,18,9.10
2015,04,04,15,19,9.00
2015,04,04,15,20,9.00
2015,04,04,15,21,9.00
2015,04,04,15,22,9.00
2015,04,04,15,23,9.10
2015,04,04,15,24,9.10
2015,04,04,15,25,9.10
2015,04,04,15,26,9.20
2015,04,04,15,27,9.20
2015,04,04,15,28,9.20
2015,04,04,15,29,9.20
2015,04,04,15,30,9.30
2015,04,04,15,31,9.30
2015,04,04,15,32,9.30
2015,04,04,15,33,9.30
2015,04,04,15,34,9.30
2015,04,04,15,35,9.40
2015,04,04,15,36,9.40
2015,04,04,15,37,9.50
2015,04,04,15,38,9.50
2015,04,04,15,39,9.50
2015,04,04,15,40,9.40
2015,04,04,15,41,9.40
2015,04,04,15,42,9.50
2015,04,04,15,43,9.50
2015,04,04,15,44,9.50
2015,04,04,15,45,9.50
2015,04,04,15,46,9.50
2015,04,04,15,47,9.60
2015,04,04,15,48,9.70
2015,04,04,15,49,9.70
2015,04,04,15,50,9.80
2015,04,04,15,51,9.90
2015,04,04,15,52,9.90
2015,04,04,15,53,9.90
2015,04,04,15,54,9.90
2015,04,04,15,55,9.90
2015,04,04,15,56,9.90
2015,04,04,15,57,9.90
2015,04,04,15,58,9.90
2015,04,04,15,59,9.90
2015,04,04,16,00,10.00
2015,04,04,16,01,10.00
2015,04,04,16,02,9.90
2015,04,04,16,03,9.90
2015,04,04,16,04,9.90
2015,04,04,16,05,9.90
2015,04,04,16,06,10.00
2015,04,04,16,07,10.10
2015,04,04,16,08,10.10
2015,04,04,16,09,10.20
2015,04,04,16,10,10.10
2015,04,04,16,11,10.10
2015,04,04,16,12,10.00
2015,04,04,16,13,9.80
2015,04,04,16,14,9.70
2015,04,04,16,15,9.60
2015,04,04,16,16,9.50
2015,04,04,16,17,9.40
2015,04,04,16,18,9.30
2015,04,04,16,19,9.30
2015,04,04,16,20,9.40
2015,04,04,16,21,9.40
2015,04,04,16,22,9.40
2015,04,04,16,23,9.40
2015,04,04,16,24,9.50
2015,04,04,16,25,9.50
2015,04,04,16,26,9.60
2015,04,04,16,27,9.60
2015,04,04,16,28,9.70
2015,04,04,16,29,9.70
2015,04,04,16,30,9.70
2015,04,04,16,31,9.80
2015,04,04,16,32,9.80
2015,04,04,16,33,9.80
2015,04,04,16,34,9.90
2015,04,04,16,35,9.90
2015,04,04,16,36,9.90
2015,04,04,16,37,10.00
2015,04,04,16,38,10.10
2015,04,04,16,39,10.10
2015,04,04,16,40,10.10
2015,04,04,16,41,10.10
2015,04,04,16,42,10.10
2015,04,04,16,43,10.10
2015,04,04,16,44,10.10
2015,04,04,16,45,10.20
2015,04,04,16,46,10.30
2015,04,04,16,47,10.30
2015,04,04,16,48,10.50
2015,04,04,16,49,10.60
2015,04,04,16,50,10.70
2015,04,04,16,51,10.70
2015,04,04,16,52,10.80
2015,04,04,16,53,10.90
2015,04,04,16,54,11.00
2015,04,04,16,55,11.10
2015,04,04,16,56,11.10
2015,04,04,16,57,11.20
2015,04,04,16,58,11.30
2015,04,04,16,59,11.30
2015,04,04,17,00,11.30
2015,04,04,17,01,11.30
2015,04,04,17,02,11.30
2015,04,04,17,03,11.20
2015,04,04,17,04,11.10
2015,04,04,17,05,11.00
2015,04,04,17,06,10.90
2015,04,04,17,07,10.90
2015,04,04,17,08,10.90
2015,04,04,17,09,10.90
2015,04,04,17,10,10.90
2015,04,04,17,11,10.80
2015,04,04,17,12,10.80
2015,04,04,17,13,10.70
2015,04,04,17,14,10.70
2015,04,04,17,15,10.70
2015,04,04,17,16,10.70
2015,04,04,17,17,10.70
2015,04,04,17,18,10.80
2015,04,04,17,19,10.70
2015,04,04,17,20,10.70
2015,04,04,17,21,10.60
2015,04,04,17,22,10.60
2015,04,04,17,23,10.60
2015,04,04,17,24,10.60
2015,04,04,17,25,10.60
2015,04,04,17,26,10.60
2015,04,04,17,27,10.50
2015,04,04,17,28,10.50
2015,04,04,17,29,10.50
2015,04,04,17,30,10.40
2015,04,04,17,31,10.40
2015,04,04,17,32,10.40
2015,04,04,17,33,10.40
2015,04,04,17,34,10.40
2015,04,04,17,35,10.30
2015,04,04,17,36,10.30
2015,04,04,17,37,10.30
2015,04,04,17,38,10.30
2015,04,04,17,39,10.30
2015,04,04,17,40,10.30
2015,04,04,17,41,10.30
2015,04,04,17,42,10.30
2015,04,04,17,43,10.30
2015,04,04,17,44,10.30
2015,04,04,17,45,10.30
2015,04,04,17,46,10.30
2015,04,04,17,47,10.30
2015,04,04,17,48,10.30
2015,04,04,17,49,10.40
2015,04,04,17,50,10.40
2015,04,04,17,51,10.40
2015,04,04,17,52,10.40
2015,04,04,17,53,10.30
2015,04,04,17,54,10.20
2015,04,04,17,55,10.20